Skip Page Navigation
NASA JPL Caltech
NASA Logo - Jet Propulsion Laboratory + View the NASA Portal
+ Near-Earth Object (NEO) Program
Search JPL
JPL Home Earth Solar System Stars & Galaxies Technology
JPL Solar System Dynamics
BODIES ORBITS EPHEMERIDES TOOLS PHYSICAL DATA DISCOVERY FAQ SITE MAP
JPL Small-Body Database Browser
Search: [ help ]  
(2007 YV56)
Classification: Apollo [NEO, PHA]          SPK-ID: 3398657
Ephemeris | Orbit Diagram | Orbital Elements | Physical Parameters | Close-Approach Data ]

[ hide orbit diagram ]
Orbit Diagram
Note: Make sure you have Java enabled on your browser to see the applet. This applet is provided as a 3D orbit visualization tool. The applet was implemented using 2-body methods, and hence should not be used for determining accurate long-term trajectories (over several years or decades) or planetary encounter circumstances. For accurate long-term ephemerides, please instead use our Horizons system.
Orbit Viewer

Additional Notes: the orbits shown in the applet are color coded. The planets are white lines, and the asteroid/comet is a blue line. The bright white line indicates the portion of the orbit that is above the ecliptic plane, and the darker portion is below the ecliptic plane. Likewise for the asteroid/comet orbit, the light blue indicates the portion above the ecliptic plane, and the dark blue the portion below the ecliptic plane.

Orbit Viewer applet originally written and kindly provided by Osamu Ajiki (AstroArts), and further modified by Ron Baalke (JPL).


Orbital Elements at Epoch 2456400.5 (2013-Apr-18.0) TDB
Reference: JPL 22 (heliocentric ecliptic J2000)
 Element Value Uncertainty (1-sigma)   Units 
e .6218632991320833 6.1444e-07  
a 1.57570750970786 4.5405e-08 AU
q .5958328392537312 9.8026e-07 AU
i 6.244974438351597 2.802e-05 deg
node 102.5375634489534 3.356e-05 deg
peri 265.5878487007967 0.00011535 deg
M 271.0160423945488 4.3314e-05 deg
tp 2456579.075161127820
(2013-Oct-13.57516113)
9.4477e-05 JED
period 722.4567184464812
1.98
3.1227e-05
8.549e-08
d
yr
n .4982997469718574 2.1538e-08 deg/d
Q 2.55558218016199 7.3641e-08 AU
  Orbit Determination Parameters
   # obs. used (total)      120  
   data-arc span      1490 days (4.08 yr)  
   first obs. used      2007-12-31  
   last obs. used      2012-01-29  
   planetary ephem.      DE405  
   SB-pert. ephem.      SB405-CPV-2  
   condition code      0  
   fit RMS      .96367  
   data source      ORB  
   producer      Otto Matic  
   solution date      2012-Jan-29 23:50:15  

Additional Information
 Earth MOID = .00508077 AU 
 T_jup = 4.159 
[ show covariance matrix ]

Ephemeris | Orbit Diagram | Orbital Elements | Physical Parameters | Close-Approach Data ]

Physical Parameter Table
Parameter Symbol Value Units Sigma Reference Notes
absolute magnitude H 20.982 mag .42743 22 autocmod 2.5b

[ show close-approach data ]
Ephemeris | Orbit Diagram | Orbital Elements | Physical Parameters | Close-Approach Data ]
ABOUT SSD CREDITS/AWARDS PRIVACY/COPYRIGHT GLOSSARY LINKS
FirstGov 2013-May-19 01:31 UT
(server date/time)  
NASA Home Page
Site Manager:   Donald K. Yeomans
Webmaster  Alan B. Chamberlin